This is the latest recevied weather packets stored in our database for station/object KD0RIH. If no packets are shown the sender has not sent any weather packets the latest 10 day(s).
| Time | Temp. | Humidity | Pressure | Rain* | Wind** | Luminosity | Snow |
|---|---|---|---|---|---|---|---|
| 1777874474 | 15.56° C | 60% | 1007.7 hPa | 0 mm | - | 0 W/m² | - |
| 1777874173 | 16.11° C | 60% | 1007.7 hPa | 0 mm | - | 0 W/m² | - |
| 1777873869 | 16.11° C | 59% | 1007.8 hPa | 0 mm | - | 0 W/m² | - |
| 1777873566 | 16.67° C | 58% | 1007.6 hPa | 0 mm | - | 0 W/m² | - |
| 1777873264 | 16.67° C | 59% | 1007.6 hPa | 0 mm | - | 0 W/m² | - |
| 1777872960 | 16.67° C | 59% | 1007.6 hPa | 0 mm | - | 0 W/m² | - |
| 1777872658 | 16.67° C | 56% | 1007.4 hPa | 0 mm | - | 0 W/m² | - |
| 1777872355 | 16.67° C | 56% | 1007.4 hPa | 0 mm | - | 0 W/m² | - |
| 1777872053 | 16.67° C | 56% | 1007.6 hPa | 0 mm | - | 0 W/m² | - |
| 1777871749 | 16.67° C | 55% | 1007.6 hPa | 0 mm | - | 0 W/m² | - |
| 1777871445 | 16.67° C | 56% | 1007.6 hPa | 0 mm | - | 0 W/m² | - |
| 1777871142 | 17.22° C | 55% | 1007.4 hPa | 0 mm | - | 0 W/m² | - |
| 1777870839 | 17.22° C | 54% | 1007.5 hPa | 0 mm | - | 0 W/m² | - |
| 1777870536 | 17.22° C | 53% | 1007.4 hPa | 0 mm | - | 0 W/m² | - |
| 1777870232 | 16.11° C | 55% | 1007.7 hPa | 0 mm | - | 0 W/m² | - |
| 1777869929 | 16.11° C | 59% | 1008.2 hPa | 0 mm | - | 0 W/m² | - |
| 1777869626 | 16.11° C | 57% | 1008.3 hPa | 0 mm | - | 0 W/m² | - |
| 1777869323 | 16.67° C | 56% | 1008.1 hPa | 0 mm | - | 0 W/m² | - |
| 1777869021 | 16.11° C | 55% | 1007.9 hPa | 0 mm | - | 0 W/m² | - |
| 1777868717 | 16.11° C | 58% | 1007.8 hPa | 0 mm | - | 0 W/m² | - |
| 1777868414 | 16.11° C | 55% | 1008 hPa | 0 mm | - | 0 W/m² | - |
| 1777868110 | 16.11° C | 57% | 1008 hPa | 0 mm | - | 0 W/m² | - |
| 1777867806 | 16.67° C | 56% | 1008.1 hPa | 0 mm | - | 0 W/m² | - |
| 1777867504 | 16.67° C | 54% | 1008 hPa | 0 mm | - | 0 W/m² | - |
| 1777867200 | 16.67° C | 53% | 1008.1 hPa | 0 mm | - | 0 W/m² | - |
* Rain latest hour (hover to see other rain measurements)
** Current wind speed in m/s (hover to see current wind gust speed)